| time (UTC) | temp F | wind direction | speed knots | gust knots | rain 1hr in | rain 24hr in | rain mn in | humidity % | barometer mb |
| 20260906171821 | 97 | 250 | 0.9 | 7.0 | 0.00 | 0.00 | 0.00 | 46 | 1016.5 |
| 20260906171317 | 97 | 95 | 1.7 | 7.0 | 0.00 | 0.00 | 0.00 | 46 | 1016.7 |
| 20260906170832 | 96 | 94 | 0.9 | 2.6 | 0.00 | 0.00 | 0.00 | 48 | 1016.7 |
| 20260906170328 | 96 | 92 | 0.0 | 2.6 | 0.00 | 0.00 | 0.00 | 47 | 1016.7 |
| 20260906165823 | 95 | 123 | 1.7 | 2.6 | 0.00 | 0.00 | 0.00 | 51 | 1016.8 |
| 20260906165324 | 94 | 148 | 1.7 | 2.6 | 0.00 | 0.00 | 0.00 | 49 | 1016.9 |
| 20260906164820 | 95 | 88 | 0.9 | 2.6 | 0.00 | 0.00 | 0.00 | 47 | 1016.9 |
| 20260906164315 | 95 | 82 | 1.7 | 2.6 | 0.00 | 0.00 | 0.00 | 51 | 1017.0 |
| 20260906163812 | 95 | 143 | 0.9 | 3.5 | 0.00 | 0.00 | 0.00 | 49 | 1017.1 |
| 20260906163327 | 94 | 110 | 1.7 | 2.6 | 0.00 | 0.00 | 0.00 | 49 | 1017.0 |
| 20260906162823 | 94 | 70 | 0.0 | 5.2 | 0.00 | 0.00 | 0.00 | 50 | 1017.1 |
| 20260906162321 | 94 | 91 | 0.9 | 5.2 | 0.00 | 0.00 | 0.00 | 52 | 1017.1 |
| 20260906161821 | 94 | 80 | 0.0 | 1.7 | 0.00 | 0.00 | 0.00 | 50 | 1017.1 |
| 20260906161318 | 94 | 32 | 0.9 | 1.7 | 0.00 | 0.00 | 0.00 | 54 | 1017.1 |
| 20260906160813 | 93 | 18 | 0.0 | 3.5 | 0.00 | 0.00 | 0.00 | 55 | 1017.2 |
| 20260906160310 | 93 | 100 | 1.7 | 3.5 | 0.00 | 0.00 | 0.00 | 53 | 1017.2 |
| 20260906155826 | 93 | 150 | 1.7 | 2.6 | 0.00 | 0.00 | 0.00 | 52 | 1017.1 |
| 20260906155323 | 92 | 148 | 0.9 | 1.7 | 0.00 | 0.00 | 0.00 | 52 | 1017.1 |
| 20260906154819 | 91 | 122 | 0.9 | 2.6 | 0.00 | 0.00 | 0.00 | 56 | 1017.2 |
| 20260906154319 | 91 | 150 | 0.9 | 3.5 | 0.00 | 0.00 | 0.00 | 54 | 1017.1 |
| 20260906153815 | 91 | 142 | 0.9 | 2.6 | 0.00 | 0.00 | 0.00 | 57 | 1017.1 |
| 20260906153330 | 91 | 103 | 0.0 | 1.7 | 0.00 | 0.00 | 0.00 | 58 | 1017.1 |
| 20260906152846 | 90 | 123 | 0.9 | 1.7 | 0.00 | 0.00 | 0.00 | 54 | 1017.0 |
| 20260906152322 | 90 | 88 | 0.0 | 1.7 | 0.00 | 0.00 | 0.00 | 56 | 1017.0 |
| 20260906151818 | 90 | 151 | 0.0 | 1.7 | 0.00 | 0.00 | 0.00 | 56 | 1017.0 |
| 20260906151314 | 88 | 152 | 0.9 | 1.7 | 0.00 | 0.00 | 0.00 | 57 | 1016.9 |
| 20260906150811 | 88 | 165 | 0.9 | 1.7 | 0.00 | 0.00 | 0.00 | 57 | 1017.0 |
| 20260906150327 | 89 | 123 | 0.0 | 1.7 | 0.00 | 0.00 | 0.00 | 57 | 1017.0 |
| 20260906145827 | 88 | 123 | 0.0 | 1.7 | 0.00 | 0.00 | 0.00 | 57 | 1016.9 |
| 20260906145322 | 87 | 123 | 0.9 | 1.7 | 0.00 | 0.00 | 0.00 | 57 | 1016.9 |
| 20260906144819 | 87 | 252 | 0.0 | 1.7 | 0.00 | 0.00 | 0.00 | 61 | 1016.9 |
| 20260906144335 | 86 | 234 | 0.0 | 1.7 | 0.00 | 0.00 | 0.00 | 61 | 1016.9 |
| 20260906143829 | 86 | 234 | 0.9 | 1.7 | 0.00 | 0.00 | 0.00 | 61 | 1016.9 |
| 20260906143345 | 86 | 221 | 0.9 | 1.7 | 0.00 | 0.00 | 0.00 | 60 | 1016.9 |
| 20260906142840 | 85 | 219 | 0.9 | 1.7 | 0.00 | 0.00 | 0.00 | 61 | 1017.0 |
| 20260906142315 | 85 | 101 | 0.0 | 1.7 | 0.00 | 0.00 | 0.00 | 64 | 1016.9 |
| 20260906141811 | 85 | 101 | 0.0 | 1.7 | 0.00 | 0.00 | 0.00 | 65 | 1017.0 |
| 20260906141347 | 84 | 101 | 0.0 | 1.7 | 0.00 | 0.00 | 0.00 | 65 | 1017.0 |
| 20260906140843 | 84 | 101 | 0.9 | 2.6 | 0.00 | 0.00 | 0.00 | 66 | 1016.9 |
| 20260906140323 | 83 | 78 | 0.9 | 2.6 | 0.00 | 0.00 | 0.00 | 68 | 1016.9 |
| 20260906135817 | 82 | 107 | 0.9 | 1.7 | 0.00 | 0.00 | 0.00 | 69 | 1016.8 |
| 20260906135313 | 82 | 107 | 0.0 | 1.7 | 0.00 | 0.00 | 0.00 | 71 | 1016.8 |
| 20260906134849 | 81 | 107 | 0.0 | 1.7 | 0.00 | 0.00 | 0.00 | 73 | 1016.8 |
| 20260906134325 | 81 | 107 | 0.0 | 1.7 | 0.00 | 0.00 | 0.00 | 75 | 1016.7 |
| 20260906133821 | 80 | 107 | 0.9 | 1.7 | 0.00 | 0.00 | 0.00 | 75 | 1016.7 |
| 20260906133317 | 79 | 109 | 0.0 | 1.7 | 0.00 | 0.00 | 0.00 | 76 | 1016.8 |
| 20260906132834 | 78 | 109 | 0.9 | 1.7 | 0.00 | 0.00 | 0.00 | 77 | 1016.8 |
| 20260906132313 | 78 | 128 | 0.9 | 1.7 | 0.00 | 0.00 | 0.00 | 76 | 1016.7 |
| 20260906131809 | 77 | 128 | 0.0 | 1.7 | 0.00 | 0.00 | 0.00 | 77 | 1016.7 |
| 20260906131326 | 76 | 128 | 0.0 | 1.7 | 0.00 | 0.00 | 0.00 | 79 | 1016.6 |
| 20260906130843 | 75 | 128 | 0.0 | 1.7 | 0.00 | 0.00 | 0.00 | 84 | 1016.6 |
| 20260906130316 | 75 | 128 | 0.0 | 1.7 | 0.00 | 0.00 | 0.00 | 85 | 1016.6 |
| 20260906125811 | 74 | 128 | 0.0 | 1.7 | 0.00 | 0.00 | 0.00 | 86 | 1016.6 |
| 20260906125328 | 73 | 128 | 0.0 | 1.7 | 0.00 | 0.00 | 0.00 | 87 | 1016.6 |
| 20260906124825 | 73 | 128 | 0.0 | 0.9 | 0.00 | 0.00 | 0.00 | 87 | 1016.5 |
| 20260906124321 | 72 | 128 | 0.0 | 1.7 | 0.00 | 0.00 | 0.00 | 86 | 1016.5 |
| 20260906123327 | 70 | 128 | 0.0 | 0.0 | 0.00 | 0.00 | 0.00 | 89 | 1016.2 |
| 20260906122823 | 70 | 128 | 0.0 | 0.0 | 0.00 | 0.00 | 0.00 | 89 | 1016.1 |
| 20260906122319 | 70 | 128 | 0.0 | 0.0 | 0.00 | 0.00 | 0.00 | 89 | 1016.0 |
| 20260906121815 | 69 | 128 | 0.0 | 0.0 | 0.00 | 0.00 | 0.00 | 90 | 1016.0 |
| 20260906121316 | 69 | 128 | 0.0 | 0.0 | 0.00 | 0.00 | 0.00 | 90 | 1015.9 |
| 20260906120813 | 69 | 128 | 0.0 | 0.0 | 0.00 | 0.00 | 0.00 | 90 | 1015.9 |
| 20260906120309 | 69 | 128 | 0.0 | 0.0 | 0.00 | 0.00 | 0.00 | 90 | 1015.8 |
| 20260906115823 | 69 | 128 | 0.0 | 0.0 | 0.00 | 0.00 | 0.00 | 89 | 1015.7 |
| 20260906115318 | 69 | 128 | 0.0 | 0.0 | 0.00 | 0.00 | 0.00 | 90 | 1015.6 |
| 20260906114815 | 69 | 128 | 0.0 | 0.0 | 0.00 | 0.00 | 0.00 | 89 | 1015.6 |
| 20260906114310 | 69 | 128 | 0.0 | 0.0 | 0.00 | 0.00 | 0.00 | 89 | 1015.5 |
| 20260906113811 | 69 | 128 | 0.0 | 0.0 | 0.00 | 0.00 | 0.00 | 89 | 1015.4 |
| 20260906113327 | 69 | 128 | 0.0 | 0.0 | 0.00 | 0.00 | 0.00 | 89 | 1015.5 |
| 20260906112824 | 69 | 128 | 0.0 | 0.0 | 0.00 | 0.00 | 0.00 | 89 | 1015.4 |
| 20260906112320 | 69 | 128 | 0.0 | 0.0 | 0.00 | 0.00 | 0.00 | 89 | 1015.5 |
| 20260906111816 | 69 | 128 | 0.0 | 0.0 | 0.00 | 0.00 | 0.00 | 89 | 1015.5 |
| 20260906111311 | 69 | 128 | 0.0 | 0.0 | 0.00 | 0.00 | 0.00 | 89 | 1015.4 |
| 20260906110818 | 69 | 128 | 0.0 | 0.0 | 0.00 | 0.00 | 0.00 | 88 | 1015.4 |
| 20260905233313 | 94 | 26 | 0.0 | 2.6 | 0.00 | 0.00 | 0.00 | 46 | 1013.7 |
| 20260905232810 | 94 | 27 | 0.9 | 2.6 | 0.00 | 0.00 | 0.00 | 44 | 1013.6 |
| 20260905232328 | 94 | 15 | 0.9 | 4.3 | 0.00 | 0.00 | 0.00 | 45 | 1013.5 |
| 20260905231844 | 95 | 22 | 2.6 | 4.3 | 0.00 | 0.00 | 0.00 | 42 | 1013.5 |
| 20260905231320 | 97 | 11 | 1.7 | 4.3 | 0.00 | 0.00 | 0.00 | 45 | 1013.5 |
| 20260905230819 | 98 | 202 | 0.0 | 2.6 | 0.00 | 0.00 | 0.00 | 36 | 1013.4 |
| 20260905230315 | 98 | 232 | 0.9 | 2.6 | 0.00 | 0.00 | 0.00 | 37 | 1013.4 |
| 20260905225811 | 98 | 199 | 0.9 | 2.6 | 0.00 | 0.00 | 0.00 | 35 | 1013.4 |
| 20260905225328 | 98 | 120 | 0.9 | 2.6 | 0.00 | 0.00 | 0.00 | 37 | 1013.4 |
| 20260905224825 | 98 | 95 | 0.9 | 2.6 | 0.00 | 0.00 | 0.00 | 37 | 1013.3 |
| 20260905224322 | 98 | 82 | 0.0 | 1.7 | 0.00 | 0.00 | 0.00 | 37 | 1013.4 |
| 20260905223818 | 99 | 82 | 0.0 | 1.7 | 0.00 | 0.00 | 0.00 | 38 | 1013.4 |
| 20260905223318 | 99 | 118 | 0.0 | 2.6 | 0.00 | 0.00 | 0.00 | 36 | 1013.4 |
| 20260905222814 | 99 | 124 | 0.9 | 2.6 | 0.00 | 0.00 | 0.00 | 36 | 1013.3 |
| 20260905222311 | 99 | 143 | 0.0 | 1.7 | 0.00 | 0.00 | 0.00 | 36 | 1013.3 |
| 20260905221828 | 99 | 143 | 0.0 | 1.7 | 0.00 | 0.00 | 0.00 | 36 | 1013.4 |
| 20260905221324 | 99 | 142 | 0.0 | 2.6 | 0.00 | 0.00 | 0.00 | 35 | 1013.5 |
| 20260905220820 | 99 | 143 | 0.9 | 2.6 | 0.00 | 0.00 | 0.00 | 36 | 1013.4 |
| 20260905220316 | 99 | 148 | 0.9 | 1.7 | 0.00 | 0.00 | 0.00 | 34 | 1013.5 |
| 20260905215816 | 100 | 110 | 0.0 | 1.7 | 0.00 | 0.00 | 0.00 | 34 | 1013.6 |
| 20260905215312 | 100 | 123 | 0.9 | 2.6 | 0.00 | 0.00 | 0.00 | 36 | 1013.6 |
| 20260905214828 | 99 | 111 | 1.7 | 2.6 | 0.00 | 0.00 | 0.00 | 35 | 1013.6 |
| 20260905214324 | 99 | 111 | 0.9 | 2.6 | 0.00 | 0.00 | 0.00 | 36 | 1013.7 |
| 20260905213820 | 99 | 117 | 0.9 | 1.7 | 0.00 | 0.00 | 0.00 | 36 | 1013.7 |
| 20260905213316 | 100 | 300 | 0.0 | 2.6 | 0.00 | 0.00 | 0.00 | 37 | 1013.7 |
| 20260905212812 | 99 | 260 | 0.9 | 2.6 | 0.00 | 0.00 | 0.00 | 36 | 1013.7 |
| 20260905212350 | 99 | 262 | 0.9 | 2.6 | 0.00 | 0.00 | 0.00 | 41 | 1013.8 |
| 20260905211828 | 99 | 244 | 1.7 | 4.3 | 0.00 | 0.00 | 0.00 | 38 | 1013.8 |
| 20260905211325 | 98 | 235 | 1.7 | 4.3 | 0.00 | 0.00 | 0.00 | 37 | 1014.0 |
| 20260905210821 | 99 | 222 | 1.7 | 3.5 | 0.00 | 0.00 | 0.00 | 37 | 1014.1 |
| 20260905210317 | 99 | 272 | 0.9 | 3.5 | 0.00 | 0.00 | 0.00 | 36 | 1014.2 |
| 20260905205812 | 99 | 249 | 2.6 | 3.5 | 0.00 | 0.00 | 0.00 | 34 | 1014.3 |
| 20260905205328 | 100 | 271 | 0.9 | 2.6 | 0.00 | 0.00 | 0.00 | 36 | 1014.3 |
| 20260905204823 | 100 | 343 | 0.0 | 6.1 | 0.00 | 0.00 | 0.00 | 38 | 1014.3 |
| 20260905204323 | 99 | 254 | 0.9 | 6.1 | 0.00 | 0.00 | 0.00 | 38 | 1014.4 |
| 20260905203820 | 99 | 256 | 0.9 | 5.2 | 0.00 | 0.00 | 0.00 | 38 | 1014.5 |
| 20260905203337 | 99 | 250 | 3.5 | 5.2 | 0.00 | 0.00 | 0.00 | 36 | 1014.6 |
| 20260905202832 | 100 | 17 | 0.0 | 1.7 | 0.00 | 0.00 | 0.00 | 37 | 1014.7 |
| 20260905202326 | 99 | 24 | 0.0 | 1.7 | 0.00 | 0.00 | 0.00 | 39 | 1014.7 |
| 20260905201822 | 96 | 24 | 0.0 | 1.7 | 0.00 | 0.00 | 0.00 | 41 | 1014.7 |
| 20260905201319 | 98 | 24 | 0.0 | 2.6 | 0.00 | 0.00 | 0.00 | 42 | 1014.8 |
| 20260905200814 | 99 | 24 | 0.9 | 2.6 | 0.00 | 0.00 | 0.00 | 39 | 1015.0 |
| 20260905200316 | 100 | 89 | 0.9 | 2.6 | 0.00 | 0.00 | 0.00 | 40 | 1015.0 |
| 20260905195811 | 100 | 19 | 0.9 | 4.3 | 0.00 | 0.00 | 0.00 | 41 | 1015.0 |
| 20260905195328 | 99 | 330 | 1.7 | 4.3 | 0.00 | 0.00 | 0.00 | 40 | 1015.0 |
| 20260905194823 | 99 | 360 | 1.7 | 3.5 | 0.00 | 0.00 | 0.00 | 44 | 1015.1 |
| 20260905194319 | 99 | 360 | 0.9 | 7.0 | 0.00 | 0.00 | 0.00 | 41 | 1015.2 |
| 20260905193815 | 99 | 360 | 2.6 | 7.0 | 0.00 | 0.00 | 0.00 | 44 | 1015.2 |
| 20260905193312 | 99 | 9 | 2.6 | 5.2 | 0.00 | 0.00 | 0.00 | 41 | 1015.3 |
| 20260905192811 | 99 | 24 | 1.7 | 3.5 | 0.00 | 0.00 | 0.00 | 43 | 1015.4 |
| 20260905192327 | 99 | 22 | 0.9 | 2.6 | 0.00 | 0.00 | 0.00 | 41 | 1015.4 |
| 20260905191822 | 98 | 12 | 0.9 | 1.7 | 0.00 | 0.00 | 0.00 | 42 | 1015.4 |
| 20260905191318 | 98 | 288 | 0.9 | 3.5 | 0.00 | 0.00 | 0.00 | 41 | 1015.5 |
| 20260905190814 | 98 | 120 | 1.7 | 5.2 | 0.00 | 0.00 | 0.00 | 45 | 1015.6 |
| 20260905190331 | 97 | 150 | 1.7 | 5.2 | 0.00 | 0.00 | 0.00 | 43 | 1015.8 |
| 20260905185826 | 98 | 70 | 1.7 | 3.5 | 0.00 | 0.00 | 0.00 | 44 | 1015.8 |
| 20260905185323 | 98 | 24 | 0.0 | 1.7 | 0.00 | 0.00 | 0.00 | 42 | 1016.0 |
| 20260905184823 | 98 | 115 | 0.9 | 3.5 | 0.00 | 0.00 | 0.00 | 42 | 1016.1 |
| 20260905184318 | 98 | 32 | 0.9 | 5.2 | 0.00 | 0.00 | 0.00 | 46 | 1016.1 |
| 20260905183813 | 97 | 29 | 1.7 | 5.2 | 0.00 | 0.00 | 0.00 | 44 | 1016.2 |
| 20260905183310 | 98 | 24 | 0.9 | 4.3 | 0.00 | 0.00 | 0.00 | 44 | 1016.2 |
| 20260905182827 | 96 | 355 | 0.9 | 2.6 | 0.00 | 0.00 | 0.00 | 45 | 1016.2 |
| 20260905182324 | 97 | 324 | 0.9 | 3.5 | 0.00 | 0.00 | 0.00 | 45 | 1016.3 |
| 20260905181840 | 96 | 128 | 0.9 | 3.5 | 0.00 | 0.00 | 0.00 | 46 | 1016.3 |
| 20260905181314 | 97 | 23 | 1.7 | 3.5 | 0.00 | 0.00 | 0.00 | 46 | 1016.4 |
| 20260905180814 | 97 | 296 | 1.7 | 7.0 | 0.00 | 0.00 | 0.00 | 47 | 1016.4 |
| 20260905180310 | 97 | 341 | 3.5 | 5.2 | 0.00 | 0.00 | 0.00 | 46 | 1016.6 |
| 20260905175826 | 96 | 29 | 3.5 | 5.2 | 0.00 | 0.00 | 0.00 | 44 | 1016.6 |
| 20260905175321 | 96 | 345 | 0.9 | 5.2 | 0.00 | 0.00 | 0.00 | 44 | 1016.7 |
| 20260905174838 | 97 | 27 | 2.6 | 7.0 | 0.00 | 0.00 | 0.00 | 45 | 1016.7 |
| 20260905174313 | 97 | 10 | 1.7 | 7.0 | 0.00 | 0.00 | 0.00 | 45 | 1016.9 |
| 20260905173829 | 98 | 339 | 1.7 | 5.2 | 0.00 | 0.00 | 0.00 | 45 | 1016.9 |
| 20260905173345 | 97 | 344 | 0.9 | 2.6 | 0.00 | 0.00 | 0.00 | 45 | 1016.9 |
| 20260905172820 | 97 | 355 | 0.9 | 2.6 | 0.00 | 0.00 | 0.00 | 47 | 1017.0 |
| 20260905172321 | 97 | 26 | 0.9 | 3.5 | 0.00 | 0.00 | 0.00 | 44 | 1017.0 |